Time,TemperatureF,DewpointF,PressureIn,WindDirection,WindDirectionDegrees,WindSpeedMPH,WindSpeedGustMPH,Humidity,HourlyPrecipIn,Conditions,Clouds,dailyrainin,SoftwareType,DateUTC
2013-08-14 00:01:00,61.3,48.2,30.23,NE,45,0.0,0.0,62,0.00,,,0.00,WUHU216HW,2013-08-14 04:01:00,
2013-08-14 00:06:00,61.3,48.2,30.23,NNE,23,0.0,0.0,62,0.00,,,0.00,WUHU216HW,2013-08-14 04:06:00,
2013-08-14 00:11:00,61.1,48.0,30.23,NNE,23,0.0,0.0,62,0.00,,,0.00,WUHU216HW,2013-08-14 04:11:00,
2013-08-14 00:16:00,61.1,48.0,30.23,NNE,23,0.0,1.7,62,0.00,,,0.00,WUHU216HW,2013-08-14 04:16:00,
2013-08-14 00:21:00,60.9,47.9,30.24,NNW,338,0.0,1.7,62,0.00,,,0.00,WUHU216HW,2013-08-14 04:21:00,
2013-08-14 00:26:00,60.9,47.9,30.24,North,0,0.0,0.0,62,0.00,,,0.00,WUHU216HW,2013-08-14 04:26:00,
2013-08-14 00:31:00,60.8,47.7,30.24,North,0,0.0,0.0,62,0.00,,,0.00,WUHU216HW,2013-08-14 04:31:00,
2013-08-14 00:36:00,60.6,48.0,30.23,North,0,0.0,0.0,63,0.00,,,0.00,WUHU216HW,2013-08-14 04:36:00,
2013-08-14 00:41:00,60.6,48.0,30.24,NNE,23,0.0,0.0,63,0.00,,,0.00,WUHU216HW,2013-08-14 04:41:00,
2013-08-14 00:46:00,60.4,47.8,30.25,NNE,23,0.0,0.0,63,0.00,,,0.00,WUHU216HW,2013-08-14 04:46:00,
2013-08-14 00:51:00,60.4,47.8,30.24,North,0,0.0,0.0,63,0.00,,,0.00,WUHU216HW,2013-08-14 04:51:00,
2013-08-14 00:56:00,60.0,47.4,30.25,NNE,23,0.0,0.0,63,0.00,,,0.00,WUHU216HW,2013-08-14 04:56:00,
2013-08-14 01:01:00,60.0,47.4,30.25,North,0,0.0,0.0,63,0.00,,,0.00,WUHU216HW,2013-08-14 05:01:00,
2013-08-14 01:06:00,59.9,47.2,30.24,NNE,23,0.0,0.0,63,0.00,,,0.00,WUHU216HW,2013-08-14 05:06:00,
2013-08-14 01:11:00,59.7,46.6,30.25,North,0,0.0,0.0,62,0.00,,,0.00,WUHU216HW,2013-08-14 05:11:00,
2013-08-14 01:16:00,59.7,46.6,30.25,NNE,23,0.0,0.0,62,0.00,,,0.00,WUHU216HW,2013-08-14 05:16:00,
2013-08-14 01:21:00,59.5,46.6,30.25,North,0,0.0,0.8,62,0.00,,,0.00,WUHU216HW,2013-08-14 05:21:00,
2013-08-14 01:26:00,59.5,46.5,30.25,North,0,0.0,0.8,62,0.00,,,0.00,WUHU216HW,2013-08-14 05:26:00,
2013-08-14 01:31:00,59.5,46.5,30.24,North,0,0.0,0.0,62,0.00,,,0.00,WUHU216HW,2013-08-14 05:31:00,
2013-08-14 01:36:00,59.5,46.0,30.24,North,0,0.0,0.0,61,0.00,,,0.00,WUHU216HW,2013-08-14 05:36:00,
2013-08-14 01:41:00,59.3,45.9,30.24,North,0,0.0,0.0,61,0.00,,,0.00,WUHU216HW,2013-08-14 05:41:00,
2013-08-14 01:46:00,59.3,45.9,30.24,North,0,0.0,0.0,61,0.00,,,0.00,WUHU216HW,2013-08-14 05:46:00,
2013-08-14 01:51:00,59.1,45.7,30.25,NE,45,0.0,0.0,61,0.00,,,0.00,WUHU216HW,2013-08-14 05:51:00,
2013-08-14 01:56:00,59.1,46.1,30.24,NNE,23,0.0,0.0,62,0.00,,,0.00,WUHU216HW,2013-08-14 05:56:00,
2013-08-14 02:01:00,59.0,45.9,30.24,North,0,0.0,0.0,62,0.00,,,0.00,WUHU216HW,2013-08-14 06:01:00,
2013-08-14 02:06:00,58.8,45.7,30.24,North,0,0.0,0.0,62,0.00,,,0.00,WUHU216HW,2013-08-14 06:06:00,
2013-08-14 02:11:00,58.8,45.7,30.24,NNE,23,0.0,0.0,62,0.00,,,0.00,WUHU216HW,2013-08-14 06:11:00,
2013-08-14 02:16:00,58.6,45.6,30.24,NNE,23,0.0,0.0,62,0.00,,,0.00,WUHU216HW,2013-08-14 06:16:00,
2013-08-14 02:21:00,58.6,46.0,30.24,NNE,23,0.0,0.0,62,0.00,,,0.00,WUHU216HW,2013-08-14 06:21:00,
2013-08-14 02:26:00,58.4,45.8,30.24,NNE,23,0.0,0.0,63,0.00,,,0.00,WUHU216HW,2013-08-14 06:26:00,
2013-08-14 02:31:00,58.2,45.6,30.24,NNE,23,0.0,0.0,63,0.00,,,0.00,WUHU216HW,2013-08-14 06:31:00,
2013-08-14 02:36:00,58.2,45.6,30.24,NNE,23,0.0,0.0,63,0.00,,,0.00,WUHU216HW,2013-08-14 06:36:00,
2013-08-14 02:41:00,57.9,45.7,30.24,NNE,23,0.0,0.0,64,0.00,,,0.00,WUHU216HW,2013-08-14 06:41:00,
2013-08-14 02:46:00,57.9,45.3,30.24,North,0,0.0,0.0,63,0.00,,,0.00,WUHU216HW,2013-08-14 06:46:00,
2013-08-14 02:51:00,57.7,45.6,30.24,North,0,0.0,0.0,64,0.00,,,0.00,WUHU216HW,2013-08-14 06:51:00,
2013-08-14 02:56:00,57.5,45.4,30.24,North,0,0.0,0.0,64,0.00,,,0.00,WUHU216HW,2013-08-14 06:56:00,
2013-08-14 03:01:00,57.3,45.2,30.24,North,0,0.0,0.0,64,0.00,,,0.00,WUHU216HW,2013-08-14 07:01:00,
2013-08-14 03:06:00,57.3,45.2,30.24,North,0,0.0,0.0,64,0.00,,,0.00,WUHU216HW,2013-08-14 07:06:00,
2013-08-14 03:11:00,57.0,44.9,30.24,North,0,0.0,0.0,64,0.00,,,0.00,WUHU216HW,2013-08-14 07:11:00,
2013-08-14 03:16:00,57.0,44.9,30.25,North,0,0.0,0.0,64,0.00,,,0.00,WUHU216HW,2013-08-14 07:16:00,
2013-08-14 03:21:00,57.0,44.9,30.24,North,0,0.0,0.0,64,0.00,,,0.00,WUHU216HW,2013-08-14 07:21:00,
2013-08-14 03:26:00,56.8,44.7,30.25,North,0,0.0,0.0,64,0.00,,,0.00,WUHU216HW,2013-08-14 07:26:00,
2013-08-14 03:31:00,56.8,44.7,30.25,North,0,0.0,0.0,64,0.00,,,0.00,WUHU216HW,2013-08-14 07:31:00,
2013-08-14 03:36:00,56.6,44.5,30.25,North,0,0.0,0.0,64,0.00,,,0.00,WUHU216HW,2013-08-14 07:36:00,
2013-08-14 03:41:00,56.4,44.8,30.25,North,0,0.0,0.0,65,0.00,,,0.00,WUHU216HW,2013-08-14 07:41:00,
2013-08-14 03:46:00,56.4,44.8,30.25,North,0,0.0,0.0,65,0.00,,,0.00,WUHU216HW,2013-08-14 07:46:00,
2013-08-14 03:51:00,56.4,44.8,30.25,North,0,0.0,0.0,65,0.00,,,0.00,WUHU216HW,2013-08-14 07:51:00,
2013-08-14 03:56:00,56.3,44.6,30.25,North,0,0.0,0.0,65,0.00,,,0.00,WUHU216HW,2013-08-14 07:56:00,
2013-08-14 04:01:00,56.1,44.8,30.25,North,0,0.0,0.0,66,0.00,,,0.00,WUHU216HW,2013-08-14 08:01:00,
2013-08-14 04:06:00,55.9,44.7,30.25,North,0,0.0,0.0,66,0.00,,,0.00,WUHU216HW,2013-08-14 08:06:00,
2013-08-14 04:11:00,55.9,44.7,30.25,North,0,0.0,0.0,66,0.00,,,0.00,WUHU216HW,2013-08-14 08:11:00,
2013-08-14 04:16:00,55.7,44.5,30.25,North,0,0.0,0.0,66,0.00,,,0.00,WUHU216HW,2013-08-14 08:16:00,
2013-08-14 04:21:00,55.5,44.3,30.24,North,0,0.0,0.0,66,0.00,,,0.00,WUHU216HW,2013-08-14 08:21:00,
2013-08-14 04:26:00,55.5,44.3,30.24,North,0,0.0,0.0,66,0.00,,,0.00,WUHU216HW,2013-08-14 08:26:00,
2013-08-14 04:31:00,55.5,44.3,30.25,North,0,0.0,0.0,66,0.00,,,0.00,WUHU216HW,2013-08-14 08:31:00,
2013-08-14 04:36:00,55.2,44.4,30.25,North,0,0.0,0.0,67,0.00,,,0.00,WUHU216HW,2013-08-14 08:36:00,
2013-08-14 04:41:00,55.2,44.4,30.25,North,0,0.0,0.0,67,0.00,,,0.00,WUHU216HW,2013-08-14 08:41:00,
2013-08-14 04:46:00,55.0,44.2,30.25,North,0,0.0,0.0,67,0.00,,,0.00,WUHU216HW,2013-08-14 08:46:00,
2013-08-14 04:51:00,54.6,43.9,30.25,North,0,0.0,0.0,67,0.00,,,0.00,WUHU216HW,2013-08-14 08:51:00,
2013-08-14 04:56:00,54.6,44.3,30.25,North,0,0.0,0.0,68,0.00,,,0.00,WUHU216HW,2013-08-14 08:56:00,
2013-08-14 05:00:00,54.5,44.1,30.25,North,0,0.0,0.0,68,0.00,,,0.00,WUHU216HW,2013-08-14 09:00:00,
2013-08-14 05:05:00,54.3,44.1,30.25,North,0,0.0,0.0,68,0.00,,,0.00,WUHU216HW,2013-08-14 09:05:00,
2013-08-14 05:10:00,54.3,43.9,30.25,North,0,0.0,0.0,68,0.00,,,0.00,WUHU216HW,2013-08-14 09:10:00,
2013-08-14 05:15:00,54.3,43.9,30.25,North,0,0.0,0.0,68,0.00,,,0.00,WUHU216HW,2013-08-14 09:15:00,
2013-08-14 05:20:00,54.3,43.9,30.25,North,0,0.0,0.0,68,0.00,,,0.00,WUHU216HW,2013-08-14 09:20:00,
2013-08-14 05:25:00,54.3,43.9,30.26,North,0,0.0,0.0,68,0.00,,,0.00,WUHU216HW,2013-08-14 09:25:00,
2013-08-14 05:30:00,54.3,43.9,30.26,North,0,0.0,0.0,68,0.00,,,0.00,WUHU216HW,2013-08-14 09:30:00,
2013-08-14 05:35:00,54.1,44.1,30.26,North,0,0.0,0.0,69,0.00,,,0.00,WUHU216HW,2013-08-14 09:35:00,
2013-08-14 05:40:00,53.9,44.0,30.26,North,0,0.0,0.0,69,0.00,,,0.00,WUHU216HW,2013-08-14 09:40:00,
2013-08-14 05:45:00,53.9,44.0,30.26,North,0,0.0,0.0,69,0.00,,,0.00,WUHU216HW,2013-08-14 09:45:00,
2013-08-14 05:50:00,53.7,44.2,30.26,North,0,0.0,0.0,70,0.00,,,0.00,WUHU216HW,2013-08-14 09:50:00,
2013-08-14 05:55:00,53.7,44.2,30.26,North,0,0.0,0.0,70,0.00,,,0.00,WUHU216HW,2013-08-14 09:55:00,
2013-08-14 06:00:00,53.7,44.2,30.26,North,0,0.0,0.0,70,0.00,,,0.00,WUHU216HW,2013-08-14 10:00:00,
2013-08-14 06:05:00,53.4,43.8,30.26,North,0,0.0,0.0,70,0.00,,,0.00,WUHU216HW,2013-08-14 10:05:00,
2013-08-14 06:10:00,53.4,43.8,30.26,North,0,0.0,0.0,70,0.00,,,0.00,WUHU216HW,2013-08-14 10:10:00,
2013-08-14 06:15:00,53.4,44.2,30.26,North,0,0.0,0.0,71,0.00,,,0.00,WUHU216HW,2013-08-14 10:15:00,
2013-08-14 06:20:00,53.2,44.0,30.26,North,0,0.0,0.0,71,0.00,,,0.00,WUHU216HW,2013-08-14 10:20:00,
2013-08-14 06:25:00,53.2,44.0,30.26,North,0,0.0,0.0,71,0.00,,,0.00,WUHU216HW,2013-08-14 10:25:00,
2013-08-14 06:30:00,53.2,44.0,30.26,North,0,0.0,0.0,71,0.00,,,0.00,WUHU216HW,2013-08-14 10:30:00,
2013-08-14 06:35:00,52.8,43.7,30.26,North,0,0.0,0.0,71,0.00,,,0.00,WUHU216HW,2013-08-14 10:35:00,
2013-08-14 06:40:00,52.8,44.1,30.26,North,0,0.0,0.0,72,0.00,,,0.00,WUHU216HW,2013-08-14 10:40:00,
2013-08-14 06:45:00,52.8,44.1,30.26,North,0,0.0,0.0,72,0.00,,,0.00,WUHU216HW,2013-08-14 10:45:00,
2013-08-14 06:50:00,52.7,43.9,30.27,North,0,0.0,0.0,72,0.00,,,0.00,WUHU216HW,2013-08-14 10:50:00,
2013-08-14 06:55:00,52.7,43.9,30.27,North,0,0.0,0.0,72,0.00,,,0.00,WUHU216HW,2013-08-14 10:55:00,
2013-08-14 07:00:00,52.7,43.9,30.27,North,0,0.0,0.0,72,0.00,,,0.00,WUHU216HW,2013-08-14 11:00:00,
2013-08-14 07:05:00,52.7,43.9,30.27,North,0,0.0,0.0,72,0.00,,,0.00,WUHU216HW,2013-08-14 11:05:00,
2013-08-14 07:10:00,52.7,44.1,30.27,North,0,0.0,0.0,73,0.00,,,0.00,WUHU216HW,2013-08-14 11:10:00,
2013-08-14 07:15:00,52.5,44.1,30.27,North,0,0.0,0.0,73,0.00,,,0.00,WUHU216HW,2013-08-14 11:15:00,
2013-08-14 07:20:00,52.3,43.9,30.28,North,0,0.0,0.0,73,0.00,,,0.00,WUHU216HW,2013-08-14 11:20:00,
2013-08-14 07:25:00,52.3,43.9,30.28,North,0,0.0,0.0,73,0.00,,,0.00,WUHU216HW,2013-08-14 11:25:00,
2013-08-14 07:30:00,52.1,43.7,30.28,North,0,0.0,0.0,73,0.00,,,0.00,WUHU216HW,2013-08-14 11:30:00,
2013-08-14 07:35:00,51.9,43.6,30.28,North,0,0.0,0.0,73,0.00,,,0.00,WUHU216HW,2013-08-14 11:35:00,
2013-08-14 07:40:00,51.8,43.8,30.28,North,0,0.0,0.0,74,0.00,,,0.00,WUHU216HW,2013-08-14 11:40:00,
2013-08-14 07:45:00,51.8,43.8,30.28,North,0,0.0,0.0,74,0.00,,,0.00,WUHU216HW,2013-08-14 11:45:00,
2013-08-14 07:50:00,51.8,43.8,30.29,North,0,0.0,0.0,74,0.00,,,0.00,WUHU216HW,2013-08-14 11:50:00,
2013-08-14 07:55:00,51.6,43.9,30.29,North,0,0.0,0.0,75,0.00,,,0.00,WUHU216HW,2013-08-14 11:55:00,
2013-08-14 08:00:00,51.9,44.3,30.29,North,0,0.0,0.0,75,0.00,,,0.00,WUHU216HW,2013-08-14 12:00:00,
2013-08-14 08:05:00,51.9,44.3,30.28,North,0,0.0,0.0,75,0.00,,,0.00,WUHU216HW,2013-08-14 12:05:00,
2013-08-14 08:10:00,52.3,44.6,30.28,North,0,0.0,0.0,75,0.00,,,0.00,WUHU216HW,2013-08-14 12:10:00,
2013-08-14 08:15:00,52.7,44.9,30.28,NE,45,0.0,0.0,75,0.00,,,0.00,WUHU216HW,2013-08-14 12:15:00,
2013-08-14 08:20:00,53.0,45.3,30.27,NE,45,0.0,0.0,75,0.00,,,0.00,WUHU216HW,2013-08-14 12:20:00,
2013-08-14 08:25:00,53.4,45.6,30.28,ENE,68,0.0,0.0,75,0.00,,,0.00,WUHU216HW,2013-08-14 12:25:00,
2013-08-14 08:30:00,53.7,46.0,30.28,ENE,68,0.0,0.0,75,0.00,,,0.00,WUHU216HW,2013-08-14 12:30:00,
2013-08-14 08:35:00,54.1,46.3,30.29,ESE,113,0.0,0.0,75,0.00,,,0.00,WUHU216HW,2013-08-14 12:35:00,
2013-08-14 08:40:00,54.5,46.7,30.28,ENE,68,0.0,0.0,75,0.00,,,0.00,WUHU216HW,2013-08-14 12:40:00,
2013-08-14 08:45:00,55.0,46.8,30.29,ENE,68,0.0,0.0,74,0.00,,,0.00,WUHU216HW,2013-08-14 12:45:00,
2013-08-14 08:50:00,55.4,47.2,30.29,East,90,0.0,0.0,74,0.00,,,0.00,WUHU216HW,2013-08-14 12:50:00,
2013-08-14 08:55:00,55.9,47.8,30.29,ESE,113,0.0,0.0,74,0.00,,,0.00,WUHU216HW,2013-08-14 12:55:00,
2013-08-14 09:00:00,56.6,48.0,30.29,ESE,113,0.0,0.0,73,0.00,,,0.00,WUHU216HW,2013-08-14 13:00:00,
2013-08-14 09:05:00,57.0,48.3,30.30,ESE,113,0.0,0.0,73,0.00,,,0.00,WUHU216HW,2013-08-14 13:05:00,
2013-08-14 09:10:00,57.9,48.9,30.30,ESE,113,0.0,0.0,72,0.00,,,0.00,WUHU216HW,2013-08-14 13:10:00,
2013-08-14 09:15:00,58.2,49.2,30.30,ESE,113,0.0,0.0,72,0.00,,,0.00,WUHU216HW,2013-08-14 13:15:00,
2013-08-14 09:20:00,58.4,49.4,30.30,ESE,113,0.0,0.0,72,0.00,,,0.00,WUHU216HW,2013-08-14 13:20:00,
2013-08-14 09:25:00,58.8,49.4,30.29,ENE,68,0.0,0.0,71,0.00,,,0.00,WUHU216HW,2013-08-14 13:25:00,
2013-08-14 09:30:00,59.1,49.4,30.29,NNE,23,0.0,0.0,70,0.00,,,0.00,WUHU216HW,2013-08-14 13:30:00,
2013-08-14 09:35:00,59.5,49.4,30.29,ESE,113,0.0,0.0,69,0.00,,,0.00,WUHU216HW,2013-08-14 13:35:00,
2013-08-14 09:40:00,59.7,49.4,30.29,ESE,113,0.0,0.0,69,0.00,,,0.00,WUHU216HW,2013-08-14 13:40:00,
2013-08-14 09:45:00,60.0,49.9,30.29,ENE,68,0.0,0.0,69,0.00,,,0.00,WUHU216HW,2013-08-14 13:45:00,
2013-08-14 09:50:00,60.4,49.8,30.29,ENE,68,0.8,0.8,68,0.00,,,0.00,WUHU216HW,2013-08-14 13:50:00,
2013-08-14 09:55:00,60.6,49.8,30.30,ENE,68,1.1,1.1,67,0.00,,,0.00,WUHU216HW,2013-08-14 13:55:00,
2013-08-14 10:00:00,60.9,49.5,30.30,NNE,23,0.0,1.1,66,0.00,,,0.00,WUHU216HW,2013-08-14 14:00:00,
2013-08-14 10:05:00,61.3,49.9,30.30,NE,45,0.0,1.1,66,0.00,,,0.00,WUHU216HW,2013-08-14 14:05:00,
2013-08-14 10:10:00,61.7,49.9,30.30,NNE,23,0.0,0.0,65,0.00,,,0.00,WUHU216HW,2013-08-14 14:10:00,
2013-08-14 10:15:00,62.2,50.3,30.30,NNW,338,0.0,0.0,65,0.00,,,0.00,WUHU216HW,2013-08-14 14:15:00,
2013-08-14 10:20:00,62.6,50.2,30.30,NE,45,0.0,0.6,64,0.00,,,0.00,WUHU216HW,2013-08-14 14:20:00,
2013-08-14 10:25:00,63.3,50.4,30.29,ENE,68,1.3,1.3,63,0.00,,,0.00,WUHU216HW,2013-08-14 14:25:00,
2013-08-14 10:30:00,64.0,50.7,30.29,NE,45,0.0,1.3,62,0.00,,,0.00,WUHU216HW,2013-08-14 14:30:00,
2013-08-14 10:35:00,64.5,50.7,30.30,East,90,0.0,1.3,61,0.00,,,0.00,WUHU216HW,2013-08-14 14:35:00,
2013-08-14 10:40:00,65.8,51.6,30.30,NNW,338,0.0,0.0,60,0.00,,,0.00,WUHU216HW,2013-08-14 14:40:00,
2013-08-14 10:45:00,66.3,51.6,30.30,NE,45,0.0,0.0,59,0.00,,,0.00,WUHU216HW,2013-08-14 14:45:00,
2013-08-14 10:50:00,67.2,51.9,30.30,North,0,1.5,1.5,58,0.00,,,0.00,WUHU216HW,2013-08-14 14:50:00,
2013-08-14 10:55:00,68.1,51.8,30.29,NNE,23,0.0,1.7,56,0.00,,,0.00,WUHU216HW,2013-08-14 14:55:00,
2013-08-14 11:00:00,68.7,51.8,30.30,ESE,113,2.2,2.2,55,0.00,,,0.00,WUHU216HW,2013-08-14 15:00:00,
2013-08-14 11:05:00,69.2,51.8,30.30,NNE,23,2.0,2.2,54,0.00,,,0.00,WUHU216HW,2013-08-14 15:05:00,
2013-08-14 11:10:00,69.9,52.0,30.29,NE,45,0.0,2.2,53,0.00,,,0.00,WUHU216HW,2013-08-14 15:10:00,
2013-08-14 11:15:00,70.3,51.8,30.30,NE,45,2.4,2.4,52,0.00,,,0.00,WUHU216HW,2013-08-14 15:15:00,
2013-08-14 11:20:00,70.7,51.6,30.30,North,0,2.0,4.0,51,0.00,,,0.00,WUHU216HW,2013-08-14 15:20:00,
2013-08-14 11:25:00,71.4,51.8,30.30,NE,45,0.0,5.8,50,0.00,,,0.00,WUHU216HW,2013-08-14 15:25:00,
2013-08-14 11:30:00,71.7,51.5,30.30,NNW,338,0.8,5.8,49,0.00,,,0.00,WUHU216HW,2013-08-14 15:30:00,
2013-08-14 11:35:00,72.1,51.8,30.30,North,0,2.2,2.2,49,0.00,,,0.00,WUHU216HW,2013-08-14 15:35:00,
2013-08-14 11:40:00,72.5,51.6,30.30,NE,45,0.0,2.2,48,0.00,,,0.00,WUHU216HW,2013-08-14 15:40:00,
2013-08-14 11:45:00,73.0,52.0,30.30,NE,45,0.0,1.3,48,0.00,,,0.00,WUHU216HW,2013-08-14 15:45:00,
2013-08-14 11:50:00,73.5,52.5,30.30,NE,45,0.0,0.0,48,0.00,,,0.00,WUHU216HW,2013-08-14 15:50:00,
2013-08-14 11:55:00,74.1,52.5,30.31,NNE,23,3.3,3.3,47,0.00,,,0.00,WUHU216HW,2013-08-14 15:55:00,
2013-08-14 12:00:00,74.4,52.2,30.31,NW,315,0.0,3.3,46,0.00,,,0.00,WUHU216HW,2013-08-14 16:00:00,
2013-08-14 12:05:00,74.6,51.8,30.30,North,0,4.0,4.0,45,0.00,,,0.00,WUHU216HW,2013-08-14 16:05:00,
2013-08-14 12:10:00,74.3,51.4,30.30,NW,315,1.3,4.0,45,0.00,,,0.00,WUHU216HW,2013-08-14 16:10:00,
2013-08-14 12:15:00,73.7,50.9,30.30,NNW,338,0.0,3.3,45,0.00,,,0.00,WUHU216HW,2013-08-14 16:15:00,
2013-08-14 12:20:00,73.9,51.1,30.31,NNE,23,0.0,5.8,45,0.00,,,0.00,WUHU216HW,2013-08-14 16:20:00,
2013-08-14 12:25:00,73.9,50.5,30.31,NNW,338,0.0,5.8,44,0.00,,,0.00,WUHU216HW,2013-08-14 16:25:00,
2013-08-14 12:30:00,73.9,50.5,30.31,NNW,338,2.2,2.9,44,0.00,,,0.00,WUHU216HW,2013-08-14 16:30:00,
2013-08-14 12:35:00,74.1,51.3,30.31,NNE,23,0.0,2.2,45,0.00,,,0.00,WUHU216HW,2013-08-14 16:35:00,
2013-08-14 12:40:00,74.3,50.8,30.30,NNW,338,2.0,3.5,44,0.00,,,0.00,WUHU216HW,2013-08-14 16:40:00,
2013-08-14 12:45:00,74.1,50.1,30.30,North,0,1.5,6.4,43,0.00,,,0.00,WUHU216HW,2013-08-14 16:45:00,
2013-08-14 12:50:00,73.9,49.9,30.31,North,0,4.0,6.4,43,0.00,,,0.00,WUHU216HW,2013-08-14 16:50:00,
2013-08-14 12:55:00,73.4,49.4,30.30,North,0,3.1,6.2,43,0.00,,,0.00,WUHU216HW,2013-08-14 16:55:00,
2013-08-14 13:01:00,73.2,49.2,30.30,West,270,0.0,6.2,43,0.00,,,0.00,WUHU216HW,2013-08-14 17:01:00,
2013-08-14 13:06:00,73.0,49.7,30.30,NNE,23,0.0,1.5,44,0.00,,,0.00,WUHU216HW,2013-08-14 17:06:00,
2013-08-14 13:11:00,73.0,49.7,30.30,NNE,23,1.1,1.5,44,0.00,,,0.00,WUHU216HW,2013-08-14 17:11:00,
2013-08-14 13:16:00,73.2,49.2,30.30,North,0,1.7,1.7,43,0.00,,,0.00,WUHU216HW,2013-08-14 17:16:00,
2013-08-14 13:21:00,73.0,49.7,30.30,North,0,4.2,4.2,44,0.00,,,0.00,WUHU216HW,2013-08-14 17:21:00,
2013-08-14 13:26:00,72.6,49.3,30.30,West,270,1.3,4.2,44,0.00,,,0.00,WUHU216HW,2013-08-14 17:26:00,
2013-08-14 13:31:00,72.6,49.3,30.30,North,0,2.0,4.2,44,0.00,,,0.00,WUHU216HW,2013-08-14 17:31:00,
2013-08-14 13:35:00,72.6,49.9,30.30,North,0,0.0,2.0,45,0.00,,,0.00,WUHU216HW,2013-08-14 17:35:00,
2013-08-14 13:40:00,73.0,49.7,30.30,North,0,0.0,2.0,44,0.00,,,0.00,WUHU216HW,2013-08-14 17:40:00,
2013-08-14 13:45:00,73.5,50.1,30.30,NW,315,2.0,2.0,44,0.00,,,0.00,WUHU216HW,2013-08-14 17:45:00,
2013-08-14 13:51:00,73.5,50.1,30.30,NNE,23,1.5,2.0,44,0.00,,,0.00,WUHU216HW,2013-08-14 17:51:00,
2013-08-14 13:56:00,73.7,50.3,30.30,North,0,0.0,3.1,44,0.00,,,0.00,WUHU216HW,2013-08-14 17:56:00,
2013-08-14 14:01:00,74.1,50.7,30.30,NNW,338,1.5,3.5,44,0.00,,,0.00,WUHU216HW,2013-08-14 18:01:00,
2013-08-14 14:06:00,74.6,51.2,30.29,North,0,2.0,3.5,44,0.00,,,0.00,WUHU216HW,2013-08-14 18:06:00,
2013-08-14 14:11:00,74.8,50.7,30.29,NNW,338,1.3,4.6,43,0.00,,,0.00,WUHU216HW,2013-08-14 18:11:00,
2013-08-14 14:16:00,75.0,50.9,30.29,South,180,0.0,4.6,43,0.00,,,0.00,WUHU216HW,2013-08-14 18:16:00,
2013-08-14 14:21:00,75.5,51.4,30.29,North,0,1.3,3.5,43,0.00,,,0.00,WUHU216HW,2013-08-14 18:21:00,
2013-08-14 14:26:00,75.7,50.9,30.29,West,270,3.5,3.5,42,0.00,,,0.00,WUHU216HW,2013-08-14 18:26:00,
2013-08-14 14:31:00,76.1,50.7,30.29,West,270,2.0,3.5,41,0.00,,,0.00,WUHU216HW,2013-08-14 18:31:00,
2013-08-14 14:36:00,76.2,50.2,30.29,NNW,338,0.0,2.6,40,0.00,,,0.00,WUHU216HW,2013-08-14 18:36:00,
2013-08-14 14:41:00,76.6,49.8,30.30,NE,45,0.8,2.6,39,0.00,,,0.00,WUHU216HW,2013-08-14 18:41:00,
2013-08-14 14:46:00,76.8,49.9,30.29,NNE,23,0.0,2.6,39,0.00,,,0.00,WUHU216HW,2013-08-14 18:46:00,
2013-08-14 14:51:00,77.1,50.2,30.29,NNE,23,0.0,1.5,39,0.00,,,0.00,WUHU216HW,2013-08-14 18:51:00,
2013-08-14 14:56:00,77.7,50.0,30.29,NNE,23,0.0,0.8,38,0.00,,,0.00,WUHU216HW,2013-08-14 18:56:00,
2013-08-14 15:01:00,78.4,50.6,30.29,NNE,23,0.0,0.8,38,0.00,,,0.00,WUHU216HW,2013-08-14 19:01:00,
2013-08-14 15:06:00,78.6,50.8,30.29,West,270,2.6,2.6,38,0.00,,,0.00,WUHU216HW,2013-08-14 19:06:00,
2013-08-14 15:11:00,78.6,50.8,30.29,SW,225,0.0,2.6,38,0.00,,,0.00,WUHU216HW,2013-08-14 19:11:00,
2013-08-14 15:16:00,79.3,50.6,30.29,North,0,3.5,3.5,37,0.00,,,0.00,WUHU216HW,2013-08-14 19:16:00,
2013-08-14 15:21:00,79.5,50.8,30.29,NNW,338,0.0,3.5,37,0.00,,,0.00,WUHU216HW,2013-08-14 19:21:00,
2013-08-14 15:26:00,79.8,50.3,30.29,North,0,1.3,3.5,36,0.00,,,0.00,WUHU216HW,2013-08-14 19:26:00,
2013-08-14 15:32:00,79.8,50.3,30.29,NE,45,0.0,1.3,36,0.00,,,0.00,WUHU216HW,2013-08-14 19:32:00,
2013-08-14 15:37:00,79.7,51.0,30.29,East,90,0.0,3.3,37,0.00,,,0.00,WUHU216HW,2013-08-14 19:37:00,
2013-08-14 15:42:00,80.4,50.8,30.28,NE,45,0.0,3.3,36,0.00,,,0.00,WUHU216HW,2013-08-14 19:42:00,
2013-08-14 15:47:00,80.9,50.5,30.28,NE,45,0.0,0.0,35,0.00,,,0.00,WUHU216HW,2013-08-14 19:47:00,
2013-08-14 15:52:00,81.1,50.7,30.29,NNW,338,0.0,0.0,35,0.00,,,0.00,WUHU216HW,2013-08-14 19:52:00,
2013-08-14 15:57:00,80.6,50.2,30.29,NNW,338,1.5,1.7,35,0.00,,,0.00,WUHU216HW,2013-08-14 19:57:00,
2013-08-14 16:02:00,80.4,50.1,30.28,NNE,23,1.3,2.4,35,0.00,,,0.00,WUHU216HW,2013-08-14 20:02:00,
2013-08-14 16:07:00,80.7,51.1,30.29,NNE,23,0.8,4.9,36,0.00,,,0.00,WUHU216HW,2013-08-14 20:07:00,
2013-08-14 16:12:00,80.9,52.1,30.29,North,0,0.0,4.9,37,0.00,,,0.00,WUHU216HW,2013-08-14 20:12:00,
2013-08-14 16:17:00,81.1,52.2,30.28,NW,315,2.2,2.2,37,0.00,,,0.00,WUHU216HW,2013-08-14 20:17:00,
2013-08-14 16:22:00,80.6,51.8,30.28,NNW,338,0.0,2.2,37,0.00,,,0.00,WUHU216HW,2013-08-14 20:22:00,
2013-08-14 16:27:00,80.7,52.7,30.28,NE,45,1.3,2.2,38,0.00,,,0.00,WUHU216HW,2013-08-14 20:27:00,
2013-08-14 16:32:00,80.2,52.2,30.28,SW,225,0.0,4.4,38,0.00,,,0.00,WUHU216HW,2013-08-14 20:32:00,
2013-08-14 16:37:00,79.5,52.3,30.28,NNE,23,0.0,4.4,39,0.00,,,0.00,WUHU216HW,2013-08-14 20:37:00,
2013-08-14 16:42:00,79.5,52.3,30.28,NNE,23,2.0,2.9,39,0.00,,,0.00,WUHU216HW,2013-08-14 20:42:00,
2013-08-14 16:47:00,79.5,53.1,30.28,NNE,23,0.0,2.0,40,0.00,,,0.00,WUHU216HW,2013-08-14 20:47:00,
2013-08-14 16:52:00,79.5,52.5,30.29,NNW,338,0.8,6.2,39,0.00,,,0.00,WUHU216HW,2013-08-14 20:52:00,
2013-08-14 16:57:00,78.9,52.6,30.29,North,0,0.0,6.2,40,0.00,,,0.00,WUHU216HW,2013-08-14 20:57:00,
2013-08-14 17:02:00,79.1,53.4,30.28,NNW,338,0.0,1.3,41,0.00,,,0.00,WUHU216HW,2013-08-14 21:02:00,
2013-08-14 17:07:00,78.9,53.2,30.28,WSW,248,2.4,2.4,41,0.00,,,0.00,WUHU216HW,2013-08-14 21:07:00,
2013-08-14 17:12:00,78.6,53.5,30.28,NNW,338,0.0,2.4,42,0.00,,,0.00,WUHU216HW,2013-08-14 21:12:00,
2013-08-14 17:17:00,78.6,52.9,30.28,NNW,338,2.0,2.0,41,0.00,,,0.00,WUHU216HW,2013-08-14 21:17:00,
2013-08-14 17:22:00,78.6,52.9,30.28,NE,45,0.0,2.0,41,0.00,,,0.00,WUHU216HW,2013-08-14 21:22:00,
2013-08-14 17:27:00,78.9,53.2,30.28,NNE,23,5.1,5.1,41,0.00,,,0.00,WUHU216HW,2013-08-14 21:27:00,
2013-08-14 17:32:00,79.3,53.6,30.28,WNW,293,0.0,5.1,41,0.00,,,0.00,WUHU216HW,2013-08-14 21:32:00,
2013-08-14 17:37:00,79.1,53.4,30.28,NNW,338,3.3,3.3,41,0.00,,,0.00,WUHU216HW,2013-08-14 21:37:00,
2013-08-14 17:42:00,78.6,52.9,30.28,West,270,4.2,4.2,41,0.00,,,0.00,WUHU216HW,2013-08-14 21:42:00,
2013-08-14 17:47:00,77.7,52.7,30.28,NNW,338,2.0,4.2,42,0.00,,,0.00,WUHU216HW,2013-08-14 21:47:00,
2013-08-14 17:52:00,77.5,53.2,30.28,WNW,293,0.0,2.0,43,0.00,,,0.00,WUHU216HW,2013-08-14 21:52:00,
2013-08-14 17:57:00,77.5,53.2,30.28,South,180,0.0,1.3,43,0.00,,,0.00,WUHU216HW,2013-08-14 21:57:00,
2013-08-14 18:02:00,76.6,52.4,30.28,SSW,203,0.0,0.8,43,0.00,,,0.00,WUHU216HW,2013-08-14 22:02:00,
2013-08-14 18:07:00,76.4,52.8,30.28,West,270,0.0,0.8,44,0.00,,,0.00,WUHU216HW,2013-08-14 22:07:00,
2013-08-14 18:12:00,75.9,52.3,30.27,SW,225,0.0,1.1,44,0.00,,,0.00,WUHU216HW,2013-08-14 22:12:00,
2013-08-14 18:17:00,75.7,52.8,30.27,WSW,248,3.5,3.5,45,0.00,,,0.00,WUHU216HW,2013-08-14 22:17:00,
2013-08-14 18:22:00,75.5,53.2,30.27,NE,45,3.1,3.5,46,0.00,,,0.00,WUHU216HW,2013-08-14 22:22:00,
2013-08-14 18:27:00,75.9,52.9,30.27,NNW,338,0.0,3.1,45,0.00,,,0.00,WUHU216HW,2013-08-14 22:27:00,
2013-08-14 18:33:00,76.1,53.1,30.26,NW,315,0.0,3.1,45,0.00,,,0.00,WUHU216HW,2013-08-14 22:33:00,
2013-08-14 18:38:00,75.9,52.9,30.27,North,0,1.5,1.5,45,0.00,,,0.00,WUHU216HW,2013-08-14 22:38:00,
2013-08-14 18:42:00,75.7,52.8,30.27,West,270,1.1,1.5,45,0.00,,,0.00,WUHU216HW,2013-08-14 22:42:00,
2013-08-14 18:47:00,75.7,53.4,30.27,WSW,248,0.0,1.1,46,0.00,,,0.00,WUHU216HW,2013-08-14 22:47:00,
2013-08-14 18:52:00,75.7,53.4,30.27,West,270,0.0,0.8,46,0.00,,,0.00,WUHU216HW,2013-08-14 22:52:00,
2013-08-14 18:57:00,75.5,53.2,30.26,WNW,293,0.0,0.8,46,0.00,,,0.00,WUHU216HW,2013-08-14 22:57:00,
2013-08-14 19:03:00,75.3,53.1,30.26,North,0,0.0,0.0,46,0.00,,,0.00,WUHU216HW,2013-08-14 23:03:00,
2013-08-14 19:08:00,75.0,52.7,30.26,North,0,0.0,0.0,46,0.00,,,0.00,WUHU216HW,2013-08-14 23:08:00,
2013-08-14 19:13:00,75.0,53.3,30.26,North,0,0.0,0.0,47,0.00,,,0.00,WUHU216HW,2013-08-14 23:13:00,
2013-08-14 19:18:00,75.2,53.5,30.26,NNE,23,0.0,0.0,47,0.00,,,0.00,WUHU216HW,2013-08-14 23:18:00,
2013-08-14 19:23:00,75.2,52.9,30.26,North,0,0.0,2.2,46,0.00,,,0.00,WUHU216HW,2013-08-14 23:23:00,
2013-08-14 19:27:00,75.3,53.1,30.26,North,0,0.0,2.2,46,0.00,,,0.00,WUHU216HW,2013-08-14 23:27:00,
2013-08-14 19:32:00,75.3,53.1,30.26,North,0,0.0,0.0,46,0.00,,,0.00,WUHU216HW,2013-08-14 23:32:00,
2013-08-14 19:38:00,75.0,52.7,30.26,North,0,0.0,0.0,46,0.00,,,0.00,WUHU216HW,2013-08-14 23:38:00,
2013-08-14 19:43:00,75.0,53.3,30.26,North,0,0.0,0.0,47,0.00,,,0.00,WUHU216HW,2013-08-14 23:43:00,
2013-08-14 19:48:00,74.4,52.8,30.26,North,0,0.0,0.0,47,0.00,,,0.00,WUHU216HW,2013-08-14 23:48:00,
2013-08-14 19:53:00,74.1,52.5,30.26,North,0,0.0,0.0,47,0.00,,,0.00,WUHU216HW,2013-08-14 23:53:00,
2013-08-14 19:58:00,73.5,51.9,30.26,North,0,0.0,0.0,47,0.00,,,0.00,WUHU216HW,2013-08-14 23:58:00,
2013-08-14 20:03:00,73.0,51.4,30.26,NNW,338,0.0,0.0,47,0.00,,,0.00,WUHU216HW,2013-08-15 00:03:00,
2013-08-14 20:08:00,72.6,51.7,30.26,NNW,338,0.0,0.0,48,0.00,,,0.00,WUHU216HW,2013-08-15 00:08:00,
2013-08-14 20:13:00,71.7,51.5,30.26,NNW,338,0.0,0.0,49,0.00,,,0.00,WUHU216HW,2013-08-15 00:13:00,
2013-08-14 20:18:00,71.0,51.4,30.26,NNW,338,0.0,0.0,50,0.00,,,0.00,WUHU216HW,2013-08-15 00:18:00,
2013-08-14 20:23:00,70.3,51.3,30.26,NNW,338,0.0,0.0,51,0.00,,,0.00,WUHU216HW,2013-08-15 00:23:00,
2013-08-14 20:28:00,69.6,51.5,30.26,NNW,338,0.0,0.0,53,0.00,,,0.00,WUHU216HW,2013-08-15 00:28:00,
2013-08-14 20:33:00,69.4,51.5,30.26,NNW,338,0.0,0.0,53,0.00,,,0.00,WUHU216HW,2013-08-15 00:33:00,
2013-08-14 20:37:00,69.0,51.6,30.26,NNW,338,0.0,0.0,54,0.00,,,0.00,WUHU216HW,2013-08-15 00:37:00,
2013-08-14 20:42:00,68.7,51.3,30.26,NNW,338,0.0,0.0,54,0.00,,,0.00,WUHU216HW,2013-08-15 00:42:00,
2013-08-14 20:48:00,68.5,51.1,30.27,NNW,338,0.0,0.0,54,0.00,,,0.00,WUHU216HW,2013-08-15 00:48:00,
2013-08-14 20:52:00,67.8,51.0,30.27,NNW,338,0.0,0.0,55,0.00,,,0.00,WUHU216HW,2013-08-15 00:52:00,
2013-08-14 20:57:00,67.2,51.0,30.26,NNW,338,0.0,0.0,56,0.00,,,0.00,WUHU216HW,2013-08-15 00:57:00,
2013-08-14 21:02:00,67.1,50.8,30.26,NNW,338,0.0,0.0,56,0.00,,,0.00,WUHU216HW,2013-08-15 01:02:00,
2013-08-14 21:07:00,66.7,50.5,30.26,NNW,338,0.0,0.0,56,0.00,,,0.00,WUHU216HW,2013-08-15 01:07:00,
2013-08-14 21:12:00,66.3,51.1,30.26,NNW,338,0.0,0.0,58,0.00,,,0.00,WUHU216HW,2013-08-15 01:12:00,
2013-08-14 21:17:00,66.0,50.8,30.26,NNW,338,0.0,0.0,58,0.00,,,0.00,WUHU216HW,2013-08-15 01:17:00,
2013-08-14 21:22:00,65.3,50.5,30.26,NNW,338,0.0,0.0,59,0.00,,,0.00,WUHU216HW,2013-08-15 01:22:00,
2013-08-14 21:27:00,64.9,50.2,30.26,NNW,338,0.0,0.0,59,0.00,,,0.00,WUHU216HW,2013-08-15 01:27:00,
2013-08-14 21:32:00,64.5,49.8,30.26,NNW,338,0.0,0.0,59,0.00,,,0.00,WUHU216HW,2013-08-15 01:32:00,
2013-08-14 21:37:00,63.6,49.9,30.26,NNW,338,0.0,0.0,61,0.00,,,0.00,WUHU216HW,2013-08-15 01:37:00,
2013-08-14 21:42:00,63.5,50.2,30.26,NNW,338,0.0,0.0,62,0.00,,,0.00,WUHU216HW,2013-08-15 01:42:00,
2013-08-14 21:47:00,63.3,50.4,30.26,NNW,338,0.0,0.0,63,0.00,,,0.00,WUHU216HW,2013-08-15 01:47:00,
2013-08-14 21:52:00,63.1,49.8,30.27,NNW,338,0.0,0.0,62,0.00,,,0.00,WUHU216HW,2013-08-15 01:52:00,
2013-08-14 21:57:00,62.6,49.8,30.27,NNW,338,0.0,0.0,63,0.00,,,0.00,WUHU216HW,2013-08-15 01:57:00,
2013-08-14 22:02:00,62.2,49.4,30.27,NNW,338,0.0,0.0,63,0.00,,,0.00,WUHU216HW,2013-08-15 02:02:00,
2013-08-14 22:07:00,61.8,49.5,30.27,NNW,338,0.0,0.0,64,0.00,,,0.00,WUHU216HW,2013-08-15 02:07:00,
2013-08-14 22:12:00,61.7,49.4,30.27,NNW,338,0.0,0.0,64,0.00,,,0.00,WUHU216HW,2013-08-15 02:12:00,
2013-08-14 22:17:00,61.3,49.4,30.27,NNW,338,0.0,0.0,65,0.00,,,0.00,WUHU216HW,2013-08-15 02:17:00,
2013-08-14 22:22:00,60.9,49.1,30.27,NNW,338,0.0,0.0,65,0.00,,,0.00,WUHU216HW,2013-08-15 02:22:00,
2013-08-14 22:27:00,60.6,49.2,30.27,NNW,338,0.0,0.0,66,0.00,,,0.00,WUHU216HW,2013-08-15 02:27:00,
2013-08-14 22:32:00,60.4,49.0,30.27,NNW,338,0.0,0.0,66,0.00,,,0.00,WUHU216HW,2013-08-15 02:32:00,
2013-08-14 22:37:00,59.9,48.5,30.27,NNW,338,0.0,0.0,66,0.00,,,0.00,WUHU216HW,2013-08-15 02:37:00,
2013-08-14 22:42:00,59.7,48.7,30.27,NNW,338,0.0,0.0,67,0.00,,,0.00,WUHU216HW,2013-08-15 02:42:00,
2013-08-14 22:47:00,59.5,48.5,30.26,NNW,338,0.0,0.0,67,0.00,,,0.00,WUHU216HW,2013-08-15 02:47:00,
2013-08-14 22:52:00,59.0,48.0,30.27,NNW,338,0.0,0.0,67,0.00,,,0.00,WUHU216HW,2013-08-15 02:52:00,
2013-08-14 22:57:00,58.8,48.2,30.27,NNW,338,0.0,0.0,68,0.00,,,0.00,WUHU216HW,2013-08-15 02:57:00,
2013-08-14 23:02:00,58.6,48.0,30.27,NNW,338,0.0,0.0,68,0.00,,,0.00,WUHU216HW,2013-08-15 03:02:00,
2013-08-14 23:07:00,58.2,48.1,30.27,NNW,338,0.0,0.0,69,0.00,,,0.00,WUHU216HW,2013-08-15 03:07:00,
2013-08-14 23:12:00,58.2,48.1,30.27,NNW,338,0.0,0.0,69,0.00,,,0.00,WUHU216HW,2013-08-15 03:12:00,
2013-08-14 23:17:00,57.9,48.2,30.27,NNW,338,0.0,0.0,70,0.00,,,0.00,WUHU216HW,2013-08-15 03:17:00,
2013-08-14 23:22:00,57.7,48.0,30.26,NNW,338,0.0,0.0,70,0.00,,,0.00,WUHU216HW,2013-08-15 03:22:00,
2013-08-14 23:27:00,57.7,48.0,30.26,NNW,338,0.0,0.0,70,0.00,,,0.00,WUHU216HW,2013-08-15 03:27:00,
2013-08-14 23:32:00,57.5,47.8,30.27,NNW,338,0.0,0.0,70,0.00,,,0.00,WUHU216HW,2013-08-15 03:32:00,
2013-08-14 23:37:00,57.3,48.0,30.27,NNW,338,0.0,0.0,71,0.00,,,0.00,WUHU216HW,2013-08-15 03:37:00,
2013-08-14 23:42:00,57.0,47.6,30.27,NNW,338,0.0,0.0,71,0.00,,,0.00,WUHU216HW,2013-08-15 03:42:00,
2013-08-14 23:47:00,56.8,47.4,30.27,NNW,338,0.0,0.0,71,0.00,,,0.00,WUHU216HW,2013-08-15 03:47:00,
2013-08-14 23:52:00,56.4,47.1,30.27,NNW,338,0.0,0.0,71,0.00,,,0.00,WUHU216HW,2013-08-15 03:52:00,
2013-08-14 23:57:00,56.3,47.3,30.27,NNW,338,0.0,0.0,72,0.00,,,0.00,WUHU216HW,2013-08-15 03:57:00,